Regional Weather Roundup
Issued by NWS

Home | Current Version | Previous Version | Graphics & Text | Print | Product List | Glossary On
Versions: 1 2 3 4 5 6 7 8 9 10 11 12 13 14 15 16 17 18 19 20 21 22 23 24 25 26 27 28 29 30 31 32 33 34 35 36 37 38 39 40 41 42 43 44 45 46 47 48 49 50
000
ASUS43 KTOP 232059
RWRKS

WEATHER ROUNDUP FOR KANSAS
NATIONAL WEATHER SERVICE GOODLAND KS
300 PM CST SUN NOV 23 2014

NOTE:  "FAIR" INDICATES FEW OR NO CLOUDS BELOW 12,000 FEET WITH NO
SIGNIFICANT WEATHER AND/OR OBSTRUCTIONS TO VISIBILITY.

KSZ001>006-013>018-027>032-041>047-232200-
NORTHWEST KANSAS

CITY           SKY/WX    TMP DP  RH WIND       PRES   REMARKS
GOODLAND       PTSUNNY   47   9  21 N32G45    29.69S
HAYS           CLOUDY    46  27  46 N31G39    29.57S
HILL CITY      CLOUDY    49  21  33 N26G38    29.61S
RUSSELL        CLOUDY    45  38  76 N20G29    29.54F
$$

KSZ061>065-074>080-084>089-232200-
SOUTHWEST KANSAS

CITY           SKY/WX    TMP DP  RH WIND       PRES   REMARKS
DODGE CITY     CLOUDY    46  25  43 N30G38    29.59R
ELKHART          N/A    N/A N/A N/A MISG        N/A
GARDEN CITY    CLOUDY    47  19  33 N35G46    29.62R
GREAT BEND     CLOUDY    45  34  65 N25G31    29.55R
LIBERAL        CLOUDY    48  25  40 N23       29.66R
$$

KSZ066>073-081>083-090>101-232200-
SOUTHEAST KANSAS

CITY           SKY/WX    TMP DP  RH WIND       PRES   REMARKS
CHANUTE        CLOUDY    58  56  93 NW3       29.32F
COFFEYVILLE    PTSUNNY   62  55  77 NE3       29.30F
HUTCHINSON     LGT RAIN  43  38  82 N21G37    29.50R
MEDICINE LODGE   N/A     44  40  85 N23G32    29.51R
NEWTON         CLOUDY    45  36  70 N32G46    29.45R
PARSONS        CLOUDY    60  57  89 N5        29.32F
WICHITA INTL   LGT RAIN  46  39  76 N30G41    29.44R
WICHITA JABRA  LGT RAIN  45  43  93 N32G44    29.42R
WICHITA MCCONL LGT RAIN  46  46 100 N21G32    29.42R
WINFIELD       CLOUDY    50  43  77 N29G37    29.39R
$$

KSZ007>012-019>026-033>040-048>060-102>105-232200-
NORTHEAST KANSAS

CITY           SKY/WX    TMP DP  RH WIND       PRES   REMARKS
CONCORDIA      CLOUDY    42  38  85 N15G25    29.53S
EMPORIA        CLOUDY    47  42  83 N20G33    29.38R
LAWRENCE       LGT RAIN  51  48  89 NW28G38   29.36R SQUALL  FOG
MANHATTAN      CLOUDY    47  37  68 N14G26    29.46R
OLATHE IND     LGT RAIN  56  55  97 NW7       29.34F FOG
OLATHE EXE     LGT RAIN  57  56  96 W6        29.33F FOG
SALINA         LGT RAIN  43  38  82 N31G40    29.52R
TOPEKA BILLARD CLOUDY    48  44  86 N23G30    29.40R
TOPEKA FORBES  LGT RAIN  48  44  86 N21G30    29.39R
$$



USA.gov is the U.S. government's official web portal to all federal, state and local government web resources and services.